sat.trackr.live / text

‹ back to catalog

QIANFAN-233

NORAD 69862 · 2026-155Q

PAYLOAD ACTIVE UNKNOWN

§ Identity

Operator
Country
PRC
Launch date
2026-07-05
Launch site
WSC
Launch vehicle
Mass (kg)
RCS (m²)

External: N2YO · Heavens-Above · Gunter

§ Orbital elements

Epoch: 2026-09-19T19:24:31.395744Z

Period
106.56 min
Inclination
89.0084°
Eccentricity
0.0037180
Mean motion
13.51294682 rev/d
Perigee alt
1,039.8 km
Apogee alt
1,095.2 km
Semi-major
7,445.6 km
B*
-2.9961e+0
RAAN
53.7555°
Arg perigee
14.0399°
Mean anomaly
346.1777°
Rev number
1,065

§ Raw data

QIANFAN-2331 69862U 26155Q   26262.80869671 -.01822722  00000+0 -29961+1 0  99952 69862  89.0084  53.7555 0037180  14.0399 346.1777 13.51294682 10655

JSON: /api/v1/satellites/69862 · /tle

For live sub-satellite position, see the globe view (requires WebGL).

§ Visibility from observer

Set your observer location to see the next 7 days of passes ≥ 10°. The values pass through the URL so the page stays shareable.

No JS? Fill the form by hand. The geolocation button needs JavaScript.